Location: Clermont
(50.2608°N, 4.3172°E)
Time: 21:54:55
(UTC+00:00)

SL-4 R/B - Pass Details

Date: 13 August 2020
Orbit: 428 x 665 km, 51.6° (Epoch: 21 September)

Event Time Altitude Azimuth Distance (km) Brightness Sun altitude
Rises 23:29:04 0° 287° (WNW) 2,552 5.7 -25.3°
Reaches altitude 10° 23:31:19 10° 284° (WNW) 1,634 4.6 -25.4°
Enters shadow 23:31:32 11° 283° (WNW) 1,549 4.5 -25.4°
